date,batt_volt,AirTemp_C,Solar_kW,RH,Manual_BP,StationID,WS_ms,PTemp,WS_15min_max,Prog_Sig,Solar_Raw,Bar_mbar,Solar_MJ,Max_WS_2min,Pressure_Raw,Rain_mm,WD_15min_ave,Max_AirTemp_1min,WindDir,WS_15min_med,WS_15min_ave,Elevation_Correction
2017-11-01T00:05:04Z,12.96573,12.18425,0.0,65.66207,0,1156,17.4832,14.27598,,43690,0.0,1013.295,0.0,20.74,1011.494,0,,12.35,265.3425,,,1.80078
2017-11-01T00:20:08Z,12.96571,12.01492,0.0,69.7596,0,1156,13.6024,14.32342,,43690,0.0,1013.295,0.0,17.48,1011.494,0,,12.15,277.3401,,,1.80078
2017-11-01T00:35:06Z,12.95468,12.08265,0.0,73.34918,0,1156,13.9944,14.30083,,43690,0.0,1013.295,0.0,17.35,1011.494,0,,12.08,279.7925,,,1.80078
2017-11-01T00:50:05Z,12.96571,12.01492,0.0,74.83918,0,1156,14.0728,14.1585,,43690,0.0,1013.295,0.0,16.64,1011.494,0,,12.05,276.4745,,,1.80078
2017-11-01T01:05:09Z,12.96571,12.01492,0.0,73.45076,0,1156,13.9748,13.96647,,43690,0.0,1014.026,0.0,14.94,1012.225,0,,12.08,263.4671,,,1.80078
2017-11-01T01:20:08Z,12.9665,12.05237,0.0,74.94592,0,1156,13.2104,13.82413,,43690,0.0,1014.026,0.0,15.21,1012.225,0,,12.09,265.9138,,,1.80078
2017-11-01T01:35:07Z,12.96762,11.85186,0.0,72.61292,0,1156,12.9948,13.70665,,43690,0.0,1014.026,0.0,13.78,1012.225,0,,12.05,265.5909,,,1.80078
2017-11-01T01:50:10Z,12.97403,11.8545,0.0,72.17631,0,1156,12.74,13.56432,,43690,0.0,1014.026,0.0,14.35,1012.225,0,,12.02,276.4739,,,1.80078
2017-11-01T02:05:09Z,12.97482,11.92688,0.0,74.07964,0,1156,11.6424,13.44684,,43690,0.0,1014.724,0.0,12.7,1012.923,0,,12.03,275.8493,,,1.80078
2017-11-01T02:20:06Z,12.97467,11.79228,0.0,70.25323,0,1156,12.5832,13.3994,,43690,0.0,1014.724,0.0,13.39,1012.923,0,,12.0,276.5515,,,1.80078
2017-11-01T02:35:10Z,12.96989,11.96388,0.0,73.4066,0,1156,9.604,13.3768,,43690,0.0,1014.724,0.0,12.94,1012.923,0,,12.0,278.1988,,,1.80078
2017-11-01T02:50:08Z,12.96994,11.92973,0.0,72.4916,0,1156,8.7024,13.35195,,43690,0.0,1014.724,0.0,12.49,1012.923,0,,11.96,288.2987,,,1.80078
2017-11-01T03:05:11Z,12.96991,11.89671,0.0,67.20827,0,1156,11.1524,13.35195,,43690,0.0,1015.895,0.0,13.35,1014.094,0,,11.96,278.2019,,,1.80078
2017-11-01T03:20:09Z,12.96457,11.86269,0.0,69.30834,0,1156,11.76,13.35195,,43690,0.0,1015.895,0.0,12.92,1014.094,0,,12.03,269.3743,,,1.80078
2017-11-01T03:35:12Z,12.96454,12.03154,0.0,64.46356,0,1156,10.388,13.3768,,43690,0.0,1015.895,0.0,12.29,1014.094,0,,12.03,282.9845,,,1.80078
2017-11-01T03:50:09Z,12.9697,12.03226,0.0,62.56743,0,1156,13.4652,13.3768,,43690,0.0,1015.895,0.0,14.41,1014.094,0,,12.13,275.797,,,1.80078
2017-11-01T04:05:12Z,12.96404,11.92958,0.0,64.53088,0,1156,12.7596,13.46943,,43690,0.0,1016.71,0.0,14.23,1014.909,0,,12.1,271.0053,,,1.80078
2017-11-01T04:20:09Z,12.96352,11.96194,0.0,63.20794,0,1156,13.3868,13.56432,,43690,0.0,1016.71,0.0,14.29,1014.909,0,,12.03,284.0326,,,1.80078
2017-11-01T04:35:13Z,12.9637,12.16069,0.0,59.20577,0,1156,13.9552,13.58917,,43690,0.0,1016.71,0.0,15.5,1014.909,0,,12.03,278.8619,,,1.80078
2017-11-01T04:50:10Z,12.96313,11.78764,0.0,59.03588,0,1156,11.074,13.58917,,43690,0.0,1016.71,0.0,13.74,1014.909,0,,11.99,273.1359,,,1.80078
2017-11-01T05:05:13Z,12.96311,11.86019,0.0,61.92059,0,1156,10.192,13.49428,,43690,0.0,1016.987,0.0,13.09,1015.187,0,,11.93,277.7789,,,1.80078
2017-11-01T05:20:10Z,12.96951,11.2862,0.0,62.46483,0,1156,7.9772,13.35195,,43690,0.0,1016.987,0.0,11.92,1015.187,0,,11.29,291.0891,,,1.80078
2017-11-01T05:35:13Z,12.98111,11.1517,0.0,59.75602,0,1156,10.3684,13.0718,,43690,0.0,1016.987,0.0,12.68,1015.187,0,,11.25,276.688,,,1.80078
2017-11-01T05:50:15Z,12.98664,10.30486,0.0,52.23576,0,1156,12.7988,12.7668,,43690,0.0,1016.987,0.0,12.72,1015.187,0,,10.51,281.6909,,,1.80078
2017-11-01T06:05:13Z,12.99216,10.03386,0.0,61.72085,0,1156,9.113999,12.44147,,43690,0.0,1019.24,0.0,10.84,1017.439,0,,10.07,287.8722,,,1.80078
2017-11-01T06:20:15Z,13.00319,9.390228,0.0,60.73846,0,1156,6.1348,12.02351,,43690,0.0,1019.24,0.0,10.66,1017.439,0,,9.59,286.1645,,,1.80078
2017-11-01T06:35:16Z,13.01445,9.221294,0.0,58.60485,0,1156,5.0176,11.58748,,43690,0.0,1019.24,0.0,9.62,1017.439,0,,9.32,330.6868,,,1.80078
2017-11-01T06:50:13Z,13.02611,8.714962,0.0,58.336,0,1156,2.6264,11.12884,,43690,0.0,1019.24,0.0,5.762,1017.439,0,,8.82,289.4008,,,1.80078
2017-11-01T07:05:15Z,13.0329,8.787594,0.0,56.24126,0,1156,4.3512,10.71992,,43690,0.0,1020.255,0.0,6.154,1018.454,0,,8.82,335.0861,,,1.80078
2017-11-01T07:20:17Z,13.03508,8.491699,0.0,58.01383,0,1156,4.6844,10.4714,,43690,0.0,1020.255,0.0,4.998,1018.454,0,,8.59,290.2294,,,1.80078
2017-11-01T07:35:13Z,13.04071,8.288711,0.0,58.5903,0,1156,3.1556,10.22288,,43690,0.0,1020.255,0.0,5.606,1018.454,0,,8.389999,298.4358,,,1.80078
2017-11-01T07:50:15Z,13.04623,8.356487,0.0,57.50593,0,1156,3.7828,9.974369,,43690,0.0,1020.255,0.0,6.429,1018.454,0,,8.36,317.3466,,,1.80078
2017-11-01T08:05:17Z,13.04623,8.288711,0.0,58.48864,0,1156,1.8032,9.750698,,43690,0.0,1021.611,0.0,5.802,1019.81,0,,8.389999,318.9105,,,1.80078
2017-11-01T08:20:13Z,13.05175,8.390374,0.0,59.91189,0,1156,3.8612,9.569958,,43690,0.0,1021.611,0.0,4.684,1019.81,0,,8.389999,318.8624,,,1.80078
2017-11-01T08:35:16Z,13.05175,8.153168,0.0,61.23348,0,1156,4.312,9.414074,,43690,0.0,1021.611,0.0,7.624001,1019.81,0,,8.25,288.9803,,,1.80078
2017-11-01T08:50:18Z,13.05727,8.595116,0.0,61.4386,0,1156,7.154,9.278515,,43690,0.0,1021.611,0.0,9.29,1019.81,0,,8.63,290.5768,,,1.80078
2017-11-01T09:05:19Z,13.05733,8.66219,0.0,61.67492,0,1156,8.33,9.278515,,43690,0.0,1022.754,0.0,8.229999,1020.953,0,,8.729999,288.7921,,,1.80078
2017-11-01T09:20:15Z,13.06316,8.59423,0.0,60.0481,0,1156,3.3124,9.346294,,43690,0.0,1022.754,0.0,5.606,1020.953,0,,8.63,304.1172,,,1.80078
2017-11-01T09:35:18Z,13.0628,8.221413,0.0,60.25135,0,1156,0.784,9.301113,,43690,0.0,1022.754,0.0,5.272,1020.953,0,,8.29,292.3034,,,1.80078
2017-11-01T09:50:20Z,13.06895,7.951214,0.0,60.52358,0,1156,1.6464,9.19041,,43690,0.0,1022.754,0.0,4.116,1020.953,0,,8.05,331.0701,,,1.80078
2017-11-01T10:05:16Z,13.06883,7.278106,0.0,61.51238,0,1156,3.332,9.05711,,43690,0.0,1023.34,0.0,2.685,1021.539,0,,7.379,338.4417,,,1.80078
2017-11-01T10:20:19Z,13.08687,7.279946,0.0,62.05704,0,1156,3.0968,8.767926,,43690,0.0,1023.34,0.0,3.41,1021.539,0,,7.348001,303.2017,,,1.80078
2017-11-01T10:35:21Z,13.10363,7.144954,0.0004821754,62.5662,0,1156,1.7052,8.478741,,43690,0.03375227,1023.34,2.410877e-06,3.567,1021.539,0,,7.145001,336.0286,,,1.80078
2017-11-01T10:50:19Z,13.11051,6.880222,0.004821754,62.91374,0,1156,2.3716,8.191822,,43690,0.3375228,1023.34,2.410877e-05,3.293,1021.539,0,,6.846,330.3466,,,1.80078
2017-11-01T11:05:21Z,13.10584,6.677921,0.01060952,63.52536,0,1156,2.0972,7.97041,,43690,0.7426664,1025.039,5.30476e-05,2.626,1023.239,0,,6.78,13.57422,,,1.80078
2017-11-01T11:20:19Z,13.11138,6.711865,0.02121929,63.66102,0,1156,1.5484,7.816784,,43690,1.485351,1025.039,0.0001060965,2.391,1023.239,0,,6.78,5.824407,,,1.80078
2017-11-01T11:35:23Z,13.11138,5.932205,0.02652412,69.32204,0,1156,0.9995999,7.706082,,43690,1.856688,1025.039,0.0001326206,1.803,1023.239,0,,5.864,13.83898,,,1.80078
2017-11-01T11:50:21Z,13.11138,6.711865,0.02363233,64.77966,0,1156,1.5288,7.509526,,43690,1.654263,1025.039,0.0001181616,1.901,1023.239,0,,6.78,343.2068,,,1.80078
2017-11-01T12:05:18Z,13.10034,7.050846,0.02266867,62.50848,0,1156,1.7052,7.486934,,43690,1.586807,1025.53,0.0001133433,2.136,1023.729,0,,7.119001,5.704068,,,1.80078
2017-11-01T12:20:19Z,13.10034,7.186439,0.02797371,62.16949,0,1156,1.1172,7.509526,,43690,1.95816,1025.53,0.0001398685,1.588,1023.729,0,,7.22,21.08339,,,1.80078
2017-11-01T12:35:23Z,13.10034,7.457626,0.03810108,61.22034,0,1156,2.646,7.597637,,43690,2.667075,1025.53,0.0001905054,3.94,1023.729,0,,7.492001,322.0753,,,1.80078
2017-11-01T12:50:21Z,13.09482,7.728813,0.1094795,62.81356,0,1156,1.568,7.816784,,43690,7.663567,1025.53,0.0005473976,3.136,1023.729,0,,7.864,301.4251,,,1.80078
2017-11-01T13:05:24Z,13.06722,8.813561,0.3264885,58.84746,0,1156,1.9796,8.478741,,43690,22.8542,1027.075,0.001632443,2.96,1025.275,0,,8.92,316.8044,,,1.80078
2017-11-01T13:20:23Z,13.02511,9.241577,0.3635497,57.34119,0,1156,3.7044,9.90659,,43690,25.44848,1027.075,0.001817749,4.959,1025.275,0,,9.479999,320.621,,,1.80078
2017-11-01T13:35:21Z,12.98949,9.33205,0.3967323,56.24396,0,1156,2.7048,11.33444,,43690,27.77126,1027.075,0.001983662,4.743,1025.275,0,,9.469999,320.6925,,,1.80078
2017-11-01T13:50:25Z,12.97025,9.492245,0.4275464,55.48822,0,1156,3.1752,12.58154,,43690,29.92825,1027.075,0.002137732,4.194,1025.275,0,,9.729999,270.7256,,,1.80078
2017-11-01T14:05:22Z,12.95255,10.30074,0.453998,55.00902,0,1156,2.9204,13.65921,,43690,31.77986,1027.777,0.00226999,3.45,1025.976,0,,10.37,302.5428,,,1.80078
2017-11-01T14:20:25Z,12.93273,11.20265,0.4804081,54.14883,0,1156,4.6844,14.6352,,43690,33.62857,1027.777,0.00240204,5.076,1025.976,0,,11.17,283.8584,,,1.80078
2017-11-01T14:35:23Z,12.91607,11.37151,0.5025698,52.99698,0,1156,4.9196,15.52987,,43690,35.17989,1027.777,0.002512849,4.077,1025.976,0,,11.24,277.3642,,,1.80078
2017-11-01T14:50:26Z,12.90137,11.96629,0.5217464,49.63035,0,1156,4.0964,16.26638,,43690,36.52225,1027.777,0.002608732,4.449,1025.976,0,,11.93,272.6223,,,1.80078
2017-11-01T15:05:23Z,12.89517,11.08336,0.5375677,46.47942,0,1156,3.5084,16.93512,,43690,37.62974,1027.26,0.002687839,4.978,1025.46,0,,11.22,288.9277,,,1.80078
2017-11-01T15:20:27Z,12.88964,12.03116,0.5515325,46.64862,0,1156,3.2928,17.41182,,43690,38.60728,1027.26,0.002757663,4.175,1025.46,0,,12.44,273.4726,,,1.80078
2017-11-01T15:35:25Z,12.88413,12.23427,0.5606846,49.83074,0,1156,4.3316,17.96985,,43690,39.24792,1027.26,0.002803423,5.155,1025.46,0,,12.4,260.6859,,,1.80078
2017-11-01T15:50:27Z,12.87761,12.50274,0.5645381,50.64094,0,1156,4.41,18.35393,,43690,39.51766,1027.26,0.00282269,4.449,1025.46,0,,12.47,275.6475,,,1.80078
2017-11-01T16:05:25Z,12.87101,12.59876,0.5664648,49.58634,0,1156,4.606,18.60923,,43690,39.65254,1027.67,0.002832324,5.292,1025.869,0,,12.6,268.7214,,,1.80078
2017-11-01T16:20:28Z,12.87093,12.15692,0.5640564,51.64923,0,1156,4.5668,18.76511,,43690,39.48395,1027.67,0.002820282,5.272,1025.869,0,,12.33,256.2881,,,1.80078
2017-11-01T16:35:25Z,12.87083,11.54804,0.2090368,54.28959,0,1156,4.6256,18.76511,,43690,14.63258,1027.67,0.001045184,5.723,1025.869,0,,11.58,257.6836,,,1.80078
2017-11-01T16:50:28Z,12.87614,11.81846,0.5038443,47.82461,0,1156,5.4096,18.37878,,43690,35.2691,1027.67,0.002519221,6.272,1025.869,0,,12.33,269.9616,,,1.80078
2017-11-01T17:05:26Z,12.8835,12.02908,0.5226309,51.25051,0,1156,6.8992,18.12349,,43690,36.58416,1027.856,0.002613154,7.487001,1026.055,0,,12.16,270.3132,,,1.80078
2017-11-01T17:20:30Z,12.88411,12.20027,0.5038451,46.30996,0,1156,5.9192,18.01956,,43690,35.26916,1027.856,0.002519225,7.232,1026.055,0,,12.34,280.7304,,,1.80078
2017-11-01T17:35:28Z,12.88413,11.35408,0.3578938,50.44007,0,1156,6.958,17.86819,,43690,25.05257,1027.856,0.001789469,8.08,1026.055,0,,11.59,284.1201,,,1.80078
2017-11-01T17:50:26Z,12.89515,11.35408,0.3771613,52.09884,0,1156,7.4872,17.28756,,43690,26.40129,1027.856,0.001885806,8.15,1026.055,0,,11.29,269.2183,,,1.80078
2017-11-01T18:05:30Z,12.88964,12.20039,0.4262934,49.86458,0,1156,7.154,17.06163,,43690,29.84054,1028.151,0.002131467,8.33,1026.351,0,,12.3,283.9038,,,1.80078
2017-11-01T18:20:29Z,12.88413,11.72646,0.3492234,49.4922,0,1156,4.5864,17.13619,,43690,24.44564,1028.151,0.001746117,7.330001,1026.351,0,,12.1,267.9925,,,1.80078
2017-11-01T18:35:27Z,12.88964,11.21867,0.3530769,53.62219,0,1156,7.0364,17.03679,,43690,24.71539,1028.151,0.001765385,8.45,1026.351,0,,11.25,279.2169,,,1.80078
2017-11-01T18:50:32Z,12.90066,10.47392,0.1835229,52.77588,0,1156,6.4092,16.76116,,43690,12.84661,1028.151,0.0009176146,7.37,1026.351,0,,10.64,287.1966,,,1.80078
2017-11-01T19:05:31Z,12.9172,10.47392,0.1960611,56.46579,0,1156,6.8208,16.04497,,43690,13.72428,1029.045,0.0009803057,6.605,1027.244,0,,10.44,284.8411,,,1.80078
2017-11-01T19:20:29Z,12.93757,10.7924,0.2510183,53.94154,0,1156,6.879599,15.48242,,43690,17.57128,1029.045,0.001255091,7.213,1027.244,0,,10.79,284.2935,,,1.80078
2017-11-01T19:35:28Z,12.94363,10.9989,0.2520069,54.38528,0,1156,6.6444,15.09383,,43690,17.64048,1029.045,0.001260035,6.625,1027.244,0,,11.03,268.0588,,,1.80078
2017-11-01T19:50:33Z,12.94364,10.38944,0.1228718,57.2638,0,1156,5.1156,14.89953,,43690,8.601024,1029.045,0.0006143588,7.095,1027.244,0,,10.52,274.7433,,,1.80078
2017-11-01T20:05:31Z,12.95467,9.949207,0.06312236,56.82357,0,1156,6.664,14.49061,,43690,4.418565,1029.061,0.0003156118,6.782001,1027.261,0,,10.05,286.4765,,,1.80078
2017-11-01T20:20:31Z,12.97673,9.508976,0.04866686,58.61836,0,1156,4.8804,13.80154,,43690,3.40668,1029.061,0.0002433343,6.625,1027.261,0,,9.61,276.6187,,,1.80078
2017-11-01T20:35:30Z,13.00225,9.38644,0.02168979,61.10641,0,1156,5.1548,13.0718,,43690,1.518286,1029.061,0.000108449,6.664,1027.261,0,,9.45,286.7679,,,1.80078
2017-11-01T20:50:30Z,13.0142,9.424015,0.005302069,61.72074,0,1156,5.6448,12.46406,,43690,0.3711448,1029.061,2.651034e-05,6.664,1027.261,0,,9.46,280.8246,,,1.80078
2017-11-01T21:05:29Z,13.02526,9.220852,0.00192805,60.94172,0,1156,5.9388,12.04836,,43690,0.1349635,1029.565,9.64025e-06,5.664,1027.764,0,,9.46,281.2099,,,1.80078
2017-11-01T21:20:30Z,13.02526,9.322475,0.0,61.72085,0,1156,6.2916,11.77047,,43690,0.0,1029.565,0.0,6.782001,1027.764,0,,9.42,290.0368,,,1.80078
2017-11-01T21:35:33Z,13.02556,9.390892,0.0,60.06176,0,1156,5.8212,11.56488,,43690,0.0,1029.565,0.0,6.88,1027.764,0,,9.46,276.2831,,,1.80078
2017-11-01T21:50:31Z,13.03656,9.494522,0.0,54.74548,0,1156,7.369599,11.33444,,43690,0.0,1029.565,0.0,7.291,1027.764,0,,9.49,289.4752,,,1.80078
2017-11-01T22:05:35Z,13.03104,9.427406,0.0,55.08496,0,1156,7.565599,11.17629,,43690,0.0,1029.929,0.0,7.134,1028.128,0,,9.53,288.589,,,1.80078
2017-11-01T22:20:34Z,13.04318,9.461235,0.0,53.5943,0,1156,6.1348,10.99329,,43690,0.0,1029.929,0.0,6.919,1028.128,0,,9.53,280.3625,,,1.80078
2017-11-01T22:35:35Z,13.04366,9.433326,0.0,54.68498,0,1156,5.292,10.7877,,43690,0.0,1029.929,0.0,5.978,1028.128,0,,9.469999,293.7234,,,1.80078
2017-11-01T22:50:35Z,13.0515,9.134243,0.0,52.0823,0,1156,4.1356,10.58436,,43690,0.0,1029.929,0.0,5.9,1028.128,0,,9.17,279.6599,,,1.80078
2017-11-01T23:05:34Z,13.05726,9.000298,0.0,52.55841,0,1156,3.8808,10.38103,,43690,0.0,1030.718,0.0,5.998,1028.917,0,,9.139999,296.174,,,1.80078
2017-11-01T23:20:34Z,13.06831,8.22094,0.0,58.96306,0,1156,1.176,10.10992,,43690,0.0,1030.718,0.0,2.176,1028.917,0,,8.36,352.3294,,,1.80078
2017-11-01T23:35:35Z,13.07934,8.085392,0.0,59.84412,0,1156,1.9404,9.793629,,43690,0.0,1030.718,0.0,2.881,1028.917,0,,8.189999,32.11962,,,1.80078
2017-11-01T23:50:36Z,13.07382,8.153168,0.0,59.91189,0,1156,1.8032,9.637738,,43690,0.0,1030.718,0.0,2.881,1028.917,0,,8.189999,26.99492,,,1.80078
2017-11-02T00:05:36Z,13.07382,7.27211,0.0,63.5039,0,1156,1.0388,9.459255,,43690,0.0,1031.127,0.0,1.764,1029.326,0,,7.34,43.76448,,,1.80078
2017-11-02T00:20:34Z,13.07382,7.035702,0.0,63.9794,0,1156,2.1364,9.258182,,43690,0.0,1031.127,0.0,2.881,1029.326,0,,7.170001,11.30822,,,1.80078
2017-11-02T00:35:33Z,13.08107,6.973618,0.0,61.24194,0,1156,1.6464,8.98933,,43690,0.0,1031.127,0.0,2.607,1029.326,0,,7.041,42.25456,,,1.80078
2017-11-02T00:50:38Z,13.09259,6.636124,0.0,63.04011,0,1156,2.45,8.745334,,43690,0.0,1031.127,0.0,2.568,1029.326,0,,6.704,54.86523,,,1.80078
2017-11-02T01:05:36Z,13.09817,6.974449,0.0,62.09032,0,1156,1.5484,8.566853,,43690,0.0,1030.972,0.0,2.156,1029.171,0,,6.941001,64.97115,,,1.80078
2017-11-02T01:20:34Z,13.0992,6.267826,0.0,65.72404,0,1156,1.2348,8.390629,,43690,0.0,1030.972,0.0,1.784,1029.171,0,,6.267,86.9025,,,1.80078
2017-11-02T01:35:35Z,13.10545,5.559002,0.0,69.62663,0,1156,1.0388,8.146633,,43690,0.0,1030.972,0.0,1.274,1029.171,0,,6.033,90.37394,,,1.80078
2017-11-02T01:50:40Z,13.10033,5.627117,0.0,72.13559,0,1156,0.9799999,8.015598,,43690,0.0,1030.972,0.0,1.176,1029.171,0,,5.729,76.80034,,,1.80078
2017-11-02T02:05:38Z,13.09482,6.542374,0.0,67.66102,0,1156,1.4504,8.038189,,43690,0.0,1032.364,0.0,1.96,1030.563,0,,6.576,3.562034,,,1.80078
2017-11-02T02:20:36Z,13.09482,6.440678,0.0,68.50848,0,1156,1.0192,8.058522,,43690,0.0,1032.364,0.0,1.313,1030.563,0,,6.542,71.84238,,,1.80078
2017-11-02T02:35:40Z,13.09482,5.864406,0.0,71.8305,0,1156,0.7056,8.015598,,43690,0.0,1032.364,0.0,1.274,1030.563,0,,6.034,72.97356,,,1.80078
2017-11-02T02:50:38Z,13.09482,6.474575,0.0,68.67796,0,1156,1.8424,8.015598,,43690,0.0,1032.364,0.0,2.195,1030.563,0,,6.542,83.0339,,,1.80078
2017-11-02T03:05:42Z,13.09482,6.508476,0.0,68.0339,0,1156,1.9796,8.081112,,43690,0.0,1031.225,0.0,2.136,1029.424,0,,6.508,108.281,,,1.80078
2017-11-02T03:20:40Z,13.0893,6.40678,0.0,71.66102,0,1156,1.5288,8.279926,,43690,0.0,1031.225,0.0,1.882,1029.424,0,,6.339,71.43322,,,1.80078
2017-11-02T03:35:39Z,13.0837,6.64325,0.0,71.28688,0,1156,1.7444,8.478741,,43690,0.0,1031.225,0.0,2.097,1029.424,0,,6.711001,103.1046,,,1.80078
2017-11-02T03:50:43Z,13.082,6.707813,0.0,68.80759,0,1156,2.7048,8.657222,,43690,0.0,1031.225,0.0,3.685,1029.424,0,,6.843001,74.79622,,,1.80078
2017-11-02T04:05:41Z,13.08703,6.127861,0.0,68.05639,0,1156,1.8424,8.566853,,43690,0.0,1032.602,0.0,3.312,1030.801,0,,6.196,75.92118,,,1.80078
2017-11-02T04:20:40Z,13.08735,6.164505,0.0,69.28065,0,1156,2.2148,8.589443,,43690,0.0,1032.602,0.0,2.724,1030.801,0,,6.266,110.0261,,,1.80078
2017-11-02T04:35:40Z,13.08785,5.993652,0.0,67.14327,0,1156,3.234,8.612042,,43690,0.0,1032.602,0.0,2.822,1030.801,0,,6.096,109.1805,,,1.80078
2017-11-02T04:50:44Z,13.08123,6.265358,0.0,66.09337,0,1156,2.5676,8.612042,,43690,0.0,1032.602,0.0,3.41,1030.801,0,,6.367,91.15733,,,1.80078
2017-11-02T05:05:42Z,13.08139,6.637394,0.0,65.92277,0,1156,2.3912,8.722744,,43690,0.0,1031.472,0.0,2.901,1029.671,0,,6.773,104.6318,,,1.80078
2017-11-02T05:20:39Z,13.07604,6.771828,0.0,65.20942,0,1156,3.234,8.901226,,43690,0.0,1031.472,0.0,3.45,1029.671,0,,6.84,100.6106,,,1.80078
2017-11-02T05:35:43Z,13.07604,6.60228,0.0,64.97205,0,1156,2.94,9.05711,,43690,0.0,1031.472,0.0,3.116,1029.671,0,,6.806,77.38892,,,1.80078
2017-11-02T05:50:41Z,13.07522,7.177937,0.0,68.46223,0,1156,2.3716,9.167812,,43690,0.0,1031.472,0.0,2.822,1029.671,0,,7.144001,78.61532,,,1.80078
2017-11-02T06:05:43Z,13.0635,7.141636,0.0,68.93321,0,1156,1.9404,9.323704,,43690,0.0,1031.69,0.0,2.783,1029.889,0,,7.276001,83.90498,,,1.80078
2017-11-02T06:20:41Z,13.05734,7.136849,0.0,67.84182,0,1156,3.8024,9.479595,,43690,0.0,1031.69,0.0,3.587,1029.889,0,,7.239,90.27231,,,1.80078
2017-11-02T06:35:43Z,13.06831,7.06881,0.0,69.77298,0,1156,3.234,9.368885,,43690,0.0,1031.69,0.0,4.528,1029.889,0,,7.204001,94.31382,,,1.80078
2017-11-02T06:50:45Z,13.07427,6.766548,0.0,71.03093,0,1156,2.254,9.145222,,43690,0.0,1031.69,0.0,3.528,1029.889,0,,6.8,88.61685,,,1.80078
2017-11-02T07:05:42Z,13.08695,6.635353,0.0,72.12212,0,1156,3.2732,8.833446,,43690,0.0,1032.401,0.0,3.528,1030.6,0,,6.703,93.3656,,,1.80078
2017-11-02T07:20:45Z,13.08708,6.941933,0.0,71.41275,0,1156,2.9792,8.657222,,43690,0.0,1032.401,0.0,4.43,1030.6,0,,7.144001,114.6414,,,1.80078
2017-11-02T07:35:47Z,13.07604,7.178814,0.0,69.61586,0,1156,1.7248,8.790523,,43690,0.0,1032.401,0.0,2.587,1030.6,0,,7.281,78.97774,,,1.80078
2017-11-02T07:50:43Z,13.08156,7.008991,0.0,69.24251,0,1156,3.1164,8.833446,,43690,0.0,1032.401,0.0,3.881,1030.6,0,,7.111001,90.81647,,,1.80078
2017-11-02T08:05:46Z,13.07604,7.347919,0.0,69.51366,0,1156,3.8416,9.05711,,43690,0.0,1032.599,0.0,3.097,1030.798,0,,7.382001,90.11863,,,1.80078
2017-11-02T08:20:43Z,13.06425,7.446487,0.0,69.57688,0,1156,2.45,9.346294,,43690,0.0,1032.599,0.0,2.646,1030.798,0,,7.379,101.061,,,1.80078
2017-11-02T08:35:47Z,13.06297,7.475781,0.0,68.55354,0,1156,1.7836,9.592556,,43690,0.0,1032.599,0.0,3.469,1030.798,0,,7.611001,85.26798,,,1.80078
2017-11-02T08:50:49Z,13.05728,7.644886,0.0,68.28197,0,1156,2.3324,9.816219,,43690,0.0,1032.599,0.0,2.705,1030.798,0,,7.645001,102.9994,,,1.80078
2017-11-02T09:05:46Z,13.05727,7.610996,0.0,69.468,0,1156,3.6456,10.01955,,43690,0.0,1031.696,0.0,3.371,1029.895,0,,7.713,83.92005,,,1.80078
2017-11-02T09:20:48Z,13.05175,7.678772,0.0,68.34974,0,1156,1.9796,10.15511,,43690,0.0,1031.696,0.0,3.156,1029.895,0,,7.78,84.83432,,,1.80078
2017-11-02T09:35:45Z,13.05175,7.712658,0.0,67.9431,0,1156,1.7836,10.29066,,43690,0.0,1031.696,0.0,3.038,1029.895,0,,7.882001,128.0454,,,1.80078
2017-11-02T09:50:48Z,13.04624,7.780434,0.0,66.85872,0,1156,2.0188,10.38103,,43690,0.0,1031.696,0.0,4.057,1029.895,0,,7.848001,111.8292,,,1.80078
2017-11-02T10:05:46Z,13.05175,7.81432,0.0,67.80755,0,1156,2.646,10.40362,,43690,0.0,1032.021,0.0,3.508,1030.221,0,,7.882001,83.27044,,,1.80078
2017-11-02T10:20:50Z,13.05175,7.475453,0.0,68.31585,0,1156,1.7248,10.4714,,43690,0.0,1032.021,0.0,2.078,1030.221,0,,7.679,78.6991,,,1.80078
2017-11-02T10:35:47Z,13.05175,7.81432,0.0,68.62083,0,1156,1.9208,10.44881,,43690,0.0,1032.021,0.0,4.038,1030.221,0,,7.882001,88.92446,,,1.80078
2017-11-02T10:50:50Z,13.05727,7.882091,0.0004821052,68.62083,0,1156,1.8032,10.44881,,43690,0.03374736,1032.021,2.410526e-06,2.43,1030.221,0,,7.848001,77.47207,,,1.80078
2017-11-02T11:05:47Z,13.06279,7.780434,0.002892703,70.34906,0,1156,1.666,10.44881,,43690,0.2024892,1032.184,1.446352e-05,2.587,1030.383,0,,7.882001,106.0309,,,1.80078
2017-11-02T11:20:52Z,13.05727,8.153186,0.00723142,72.28061,0,1156,1.9208,10.4714,,43690,0.5061994,1032.184,3.61571e-05,2.646,1030.383,0,,8.12,102.061,,,1.80078
2017-11-02T11:35:50Z,13.05175,8.76315,0.01205237,71.19623,0,1156,3.5868,10.62955,,43690,0.8436658,1032.184,6.026184e-05,6.135,1030.383,0,,8.9,106.9211,,,1.80078
2017-11-02T11:50:47Z,13.0352,8.998428,0.04049321,72.71828,0,1156,2.6852,10.92551,,43690,2.834525,1032.184,0.0002024661,3.94,1030.383,0,,9.099999,136.3647,,,1.80078
2017-11-02T12:05:51Z,13.02086,9.224873,0.05639605,73.65098,0,1156,2.9008,11.28925,,43690,3.947723,1032.695,0.0002819802,5.194,1030.894,0,,9.33,129.5278,,,1.80078
2017-11-02T12:20:49Z,13.02038,9.42633,0.05157538,73.58053,0,1156,1.4504,11.58748,,43690,3.610276,1032.695,0.0002578769,3.528,1030.894,0,,9.46,137.7972,,,1.80078
2017-11-02T12:35:53Z,13.01471,9.560371,0.03711499,67.31132,0,1156,1.2152,11.84051,,43690,2.598049,1032.695,0.000185575,4.861,1030.894,0,,9.59,125.5266,,,1.80078
2017-11-02T12:50:49Z,13.00321,9.830646,0.074712,60.36588,0,1156,4.312,12.07095,,43690,5.22984,1032.695,0.00037356,4.763,1030.894,0,,9.8,144.1166,,,1.80078
2017-11-02T13:05:53Z,13.0032,9.830646,0.1267694,59.34962,0,1156,2.9792,12.3014,,43690,8.873857,1032.411,0.0006338469,4.743,1030.61,0,,9.929999,123.3842,,,1.80078
2017-11-02T13:20:50Z,12.99768,10.06777,0.1923231,58.73986,0,1156,3.9984,12.60414,,43690,13.46262,1032.411,0.0009616156,6.331,1030.61,0,,10.17,127.0641,,,1.80078
2017-11-02T13:35:53Z,12.98113,10.40653,0.2019562,59.89162,0,1156,1.9796,12.97691,,43690,14.13693,1032.411,0.001009781,5.978,1030.61,0,,10.41,130.5997,,,1.80078
2017-11-02T13:50:51Z,12.97562,10.57591,0.2270264,56.9106,0,1156,4.8412,13.3768,,43690,15.89185,1032.411,0.001135132,4.312,1030.61,0,,10.64,68.83539,,,1.80078
2017-11-02T14:05:54Z,12.98058,10.13263,0.1108575,60.83662,0,1156,3.8612,13.61176,,43690,7.760023,1031.834,0.0005542873,5.37,1030.034,0,,10.2,87.83101,,,1.80078
2017-11-02T14:20:50Z,12.97941,10.13234,0.134474,62.46219,0,1156,2.1364,13.56432,,43690,9.413179,1031.834,0.0006723699,5.351,1030.034,0,,10.17,128.5712,,,1.80078
2017-11-02T14:35:52Z,12.97985,10.46925,0.2096511,64.18741,0,1156,3.332,13.63662,,43690,14.67558,1031.834,0.001048256,5.664,1030.034,0,,10.5,108.4374,,,1.80078
2017-11-02T14:50:53Z,12.96796,11.00842,0.2342235,66.04675,0,1156,3.92,13.87158,,43690,16.39565,1031.834,0.001171118,4.998,1030.034,0,,10.91,110.4756,,,1.80078
2017-11-02T15:05:50Z,12.95556,11.23774,0.2177984,66.8495,0,1156,2.8028,14.1585,,43690,15.24589,1030.813,0.001088992,4.88,1029.012,0,,11.27,105.5057,,,1.80078
2017-11-02T15:20:55Z,12.9547,11.1345,0.1816576,67.186,0,1156,5.1352,14.44317,,43690,12.71603,1030.813,0.0009082878,5.645,1029.012,0,,11.2,106.416,,,1.80078
2017-11-02T15:35:53Z,12.95468,11.30378,0.164311,68.94687,0,1156,2.5088,14.6352,,43690,11.50177,1030.813,0.0008215547,5.488,1029.012,0,,11.41,122.3566,,,1.80078